User: anonymous   Login
Location: Elko Observing site
(32.3606°N, 83.7235°W)
Time: 04:24:29
(UTC-04:00)
Language:

N. Korean satellite - Orbit

View from above orbital plane
View from above orbital plane
View from above satellite
View from above satellite

Ground track
Ground track

The orbit data is extracted from the following two-line orbital elements,

1 39026U 12072A   19110.91137761 +.00001353 +00000-0 +51803-4 0  9992
2 39026 097.2119 115.9693 0036847 312.1770 047.6342 15.27657976352566
Epoch (UTC): 20 April 2019 21:52:23
Eccentricity: 0.0036847
inclination: 97.2119°
perigee height: 457 km
apogee height: 508 km
right ascension of ascending node: 115.9693°
argument of perigee: 312.1770°
revolutions per day: 15.27657976
mean anomaly at epoch: 47.6342°
orbit number at epoch: 35256

The dashed part of the orbit path shows where the satellite is in the earth's shadow,  

DLR